Home > Weather > Lawrence > Past weeks

Flag for U.S.A. Weather for the Past 2 Weeks in Lawrence, Kansas, U.S.A.

Now
23 °F

Overcast.


Feels Like: 9 °F
Forecast: 25 / 53 °F
Wind: 17 mph from East

Location: Lawrence Municipal Airport

Current Time: Feb 13, 2016 at 6:25:18 PM

Latest Report: Feb 13, 2016 at 4:52 PM


Visibility: 10 mi

Pressure: 30.36 "Hg

Humidity: 40%

Dew point: 2 °F

Location of LawrenceLocation

Historic Weather in Lawrence — Graph

°F

Lawrence Temperature Yesterday

Maximum temperature yesterday: 38 °F (at 11:52 AM)
Minimum temperature yesterday: 21 °F (at 11:52 PM)
Average temperature yesterday: 29 °F

High & Low Weather Summary for the Past Weeks

 TemperatureHumidityPressure
High64 °F (Jan 29, 4:52 PM)96% (Jan 30, 4:52 AM)30.66 "Hg (Jan 30, 4:52 AM)
Low14 °F (Feb 4, 4:52 AM)26% (Feb 7, 3:52 PM)29.35 "Hg (Feb 2, 1:52 PM)
Average34 °F64%30.08 "Hg
* Reported Jan 29 4:52 PM — Feb 13 4:52 PM, Lawrence, Weather by CustomWeather, © 2016

Note: Actual official high and low records may vary slightly from our data, if they occured in-between our weather recording intervals... More about our weather records

Advertising

Lawrence Weather History for the Previous 24 Hours

 ConditionsComfort  
Time TempWeatherWind HumidityBarometerVisibility
4:52 PM
Sat, Feb 13
23 °FOvercast.17 mph40%30.36 "Hg10 mi
3:52 PM24 °FOvercast.17 mph36%30.41 "Hg10 mi
2:52 PM23 °FOvercast.12 mph38%30.44 "Hg10 mi
1:52 PM23 °FOvercast.13 mph40%30.48 "Hg10 mi
12:52 PM22 °FOvercast.15 mph42%30.54 "Hg10 mi
11:52 AM21 °FOvercast.12 mph41%30.58 "Hg10 mi
10:52 AM21 °FOvercast.12 mph41%30.60 "Hg10 mi
9:52 AM20 °FOvercast.8 mph48%30.61 "Hg10 mi
8:52 AM19 °FOvercast.10 mph49%30.62 "Hg10 mi
7:52 AM18 °FOvercast.9 mph52%30.64 "Hg10 mi
6:52 AM18 °FOvercast.8 mph52%30.66 "Hg10 mi
5:52 AM18 °FOvercast.10 mph47%30.64 "Hg10 mi
4:52 AM19 °FMostly cloudy.8 mph49%30.64 "Hg10 mi
3:52 AM19 °FOvercast.7 mph54%30.63 "Hg10 mi
2:52 AM20 °FOvercast.8 mph57%30.64 "Hg10 mi
1:52 AM20 °FOvercast.8 mph57%30.64 "Hg10 mi
12:52 AM21 °FOvercast.8 mph55%30.65 "Hg10 mi
11:52 PM
Fri, Feb 12
21 °FOvercast.9 mph50%30.63 "Hg10 mi
10:52 PM22 °FPassing clouds.9 mph46%30.63 "Hg10 mi
9:52 PM24 °FOvercast.12 mph50%30.63 "Hg10 mi
8:52 PM25 °FClear.9 mph50%30.61 "Hg10 mi
7:52 PM25 °FClear.12 mph48%30.59 "Hg10 mi
6:52 PM27 °FClear.12 mph46%30.57 "Hg10 mi
Weather by CustomWeather, © 2016

See weather overviewHow to use our weather pages